When you browse on this site, cookies collect data to enhance your experience and personalize the content and advertising you see.
Visit our Privacy Policy to learn more. By continuing to use the site, you agree to this use of cookies and data.
  • In Österreich
  • Länderverzeichnis
  • Für 7 Tage
  • Wassertemperatur
  • Wetterkarte
  • News
  • Widgets
  • user-avatar
    Anmelden

    Stündliche Wetter Lemeshi

    Heute, 15 Dezember, Sonntag

    Zeit Temperatur Niederschläge Wind Luftdruck Luftfeuchtigkeit
    00:00 -1°C° 0 mm 5 m/S 739 mmHg 87%
    01:00 -2°C° 0 mm 4 m/S 739 mmHg 87%
    02:00 -2°C° 0 mm 4 m/S 738 mmHg 84%
    03:00 -2°C° 0.1 mm 4 m/S 738 mmHg 86%
    04:00 -2°C° 0.1 mm 4 m/S 737 mmHg 89%
    05:00 -2°C° 0.1 mm 4 m/S 737 mmHg 91%
    06:00 -1°C° 0.1 mm 4 m/S 736 mmHg 91%
    07:00 -1°C° 0.1 mm 4 m/S 736 mmHg 92%
    08:00 0°C° 0.1 mm 4 m/S 736 mmHg 92%
    09:00 0°C° 0.5 mm 4 m/S 735 mmHg 93%
    10:00 0°C° 0.5 mm 4 m/S 735 mmHg 95%
    11:00 +1°C° 0.5 mm 4 m/S 735 mmHg 96%
    12:00 +1°C° 0.6 mm 4 m/S 735 mmHg 96%
    13:00 +2°C° 0.6 mm 3 m/S 735 mmHg 97%
    14:00 +2°C° 0.6 mm 3 m/S 735 mmHg 97%
    15:00 +1°C° 0.2 mm 3 m/S 735 mmHg 97%
    16:00 0°C° 0.2 mm 4 m/S 736 mmHg 97%
    17:00 0°C° 0.2 mm 4 m/S 736 mmHg 96%
    18:00 0°C° 0.1 mm 4 m/S 736 mmHg 96%
    19:00 0°C° 0.1 mm 4 m/S 737 mmHg 95%
    20:00 0°C° 0.1 mm 4 m/S 737 mmHg 94%
    21:00 0°C° 0 mm 4 m/S 738 mmHg 92%
    22:00 +1°C° 0 mm 3 m/S 738 mmHg 91%
    23:00 0°C° 0 mm 3 m/S 738 mmHg 89%

    Morgen, 16 Dezember, Montag

    Zeit Temperatur Niederschläge Wind Luftdruck Luftfeuchtigkeit
    00:00 0°C° 0 mm 3 m/S 738 mmHg 90%
    01:00 -1°C° 0 mm 4 m/S 739 mmHg 91%
    02:00 -1°C° 0 mm 4 m/S 739 mmHg 92%
    03:00 -1°C° 0 mm 4 m/S 738 mmHg 93%
    04:00 -1°C° 0 mm 4 m/S 738 mmHg 94%
    05:00 0°C° 0 mm 5 m/S 738 mmHg 96%
    06:00 0°C° 0 mm 5 m/S 738 mmHg 92%
    07:00 0°C° 0 mm 5 m/S 738 mmHg 89%
    08:00 +1°C° 0 mm 5 m/S 738 mmHg 85%
    09:00 +1°C° 0 mm 5 m/S 739 mmHg 84%
    10:00 +1°C° 0 mm 5 m/S 739 mmHg 82%
    11:00 +1°C° 0 mm 6 m/S 739 mmHg 81%
    12:00 +1°C° 0 mm 6 m/S 739 mmHg 80%
    13:00 +1°C° 0 mm 6 m/S 739 mmHg 80%
    14:00 +1°C° 0 mm 6 m/S 740 mmHg 80%
    15:00 +1°C° 0 mm 6 m/S 740 mmHg 81%
    16:00 +1°C° 0 mm 6 m/S 741 mmHg 82%
    17:00 +1°C° 0 mm 6 m/S 741 mmHg 83%
    18:00 +1°C° 0 mm 5 m/S 742 mmHg 83%
    19:00 +1°C° 0 mm 5 m/S 742 mmHg 83%
    20:00 +1°C° 0 mm 5 m/S 742 mmHg 83%
    21:00 +1°C° 0 mm 5 m/S 743 mmHg 84%
    22:00 0°C° 0 mm 4 m/S 743 mmHg 85%
    23:00 0°C° 0 mm 4 m/S 744 mmHg 86%

    übermorgen, 17 Dezember, Dienstag

    Zeit Temperatur Niederschläge Wind Luftdruck Luftfeuchtigkeit
    00:00 +1°C° 0 mm 3 m/S 744 mmHg 89%
    01:00 0°C° 0 mm 3 m/S 745 mmHg 91%
    02:00 0°C° 0 mm 3 m/S 745 mmHg 93%
    03:00 -1°C° 0 mm 3 m/S 745 mmHg 93%
    04:00 -1°C° 0 mm 2 m/S 745 mmHg 94%
    05:00 -1°C° 0 mm 2 m/S 745 mmHg 94%
    06:00 -1°C° 0 mm 3 m/S 744 mmHg 93%
    07:00 0°C° 0 mm 3 m/S 744 mmHg 91%
    08:00 0°C° 0 mm 3 m/S 744 mmHg 90%
    09:00 0°C° 0.2 mm 4 m/S 743 mmHg 90%
    10:00 0°C° 0.2 mm 4 m/S 743 mmHg 91%
    11:00 +1°C° 0.2 mm 4 m/S 743 mmHg 91%
    12:00 +1°C° 0.6 mm 4 m/S 742 mmHg 91%
    13:00 +3°C° 0.6 mm 4 m/S 742 mmHg 92%
    14:00 +2°C° 0.6 mm 5 m/S 741 mmHg 92%
    15:00 +3°C° 0.5 mm 4 m/S 741 mmHg 93%
    16:00 +3°C° 0.5 mm 4 m/S 741 mmHg 93%
    17:00 +3°C° 0.5 mm 3 m/S 741 mmHg 94%
    18:00 +3°C° 0.2 mm 3 m/S 742 mmHg 94%
    19:00 +2°C° 0.2 mm 3 m/S 742 mmHg 95%
    20:00 +2°C° 0.2 mm 3 m/S 742 mmHg 95%
    21:00 +2°C° 0 mm 3 m/S 742 mmHg 95%
    22:00 +3°C° 0 mm 2 m/S 742 mmHg 96%
    23:00 +3°C° 0 mm 2 m/S 742 mmHg 96%

    18 Dezember, Mittwoch

    Zeit Temperatur Niederschläge Wind Luftdruck Luftfeuchtigkeit
    00:00 +3°C° 0 mm 2 m/S 743 mmHg 97%
    01:00 +3°C° 0 mm 2 m/S 743 mmHg 97%
    02:00 +4°C° 0 mm 1 m/S 743 mmHg 98%
    03:00 +4°C° 0 mm 1 m/S 743 mmHg 98%
    04:00 +4°C° 0 mm 1 m/S 744 mmHg 98%
    05:00 +4°C° 0 mm 1 m/S 744 mmHg 98%
    06:00 +4°C° 0 mm 1 m/S 744 mmHg 98%
    07:00 +4°C° 0 mm 1 m/S 744 mmHg 98%
    08:00 +3°C° 0 mm 0 m/S 744 mmHg 98%
    09:00 +4°C° 0 mm 1 m/S 745 mmHg 97%
    10:00 +4°C° 0 mm 1 m/S 745 mmHg 97%
    11:00 +5°C° 0 mm 1 m/S 745 mmHg 96%
    12:00 +5°C° 0 mm 1 m/S 745 mmHg 96%
    13:00 +4°C° 0 mm 2 m/S 745 mmHg 95%
    14:00 +4°C° 0 mm 2 m/S 745 mmHg 95%
    15:00 +4°C° 0 mm 2 m/S 745 mmHg 95%
    16:00 +4°C° 0 mm 2 m/S 745 mmHg 95%
    17:00 +4°C° 0 mm 2 m/S 745 mmHg 96%
    18:00 +4°C° 0 mm 2 m/S 744 mmHg 95%
    19:00 +3°C° 0 mm 2 m/S 744 mmHg 95%
    20:00 +2°C° 0 mm 3 m/S 744 mmHg 95%
    21:00 +2°C° 0 mm 3 m/S 744 mmHg 94%
    22:00 +2°C° 0 mm 3 m/S 744 mmHg 94%
    23:00 +2°C° 0 mm 3 m/S 743 mmHg 94%

    19 Dezember, Donnerstag

    Zeit Temperatur Niederschläge Wind Luftdruck Luftfeuchtigkeit
    00:00 +1°C° 0 mm 4 m/S 743 mmHg 94%
    01:00 +1°C° 0 mm 4 m/S 742 mmHg 95%
    02:00 +1°C° 0 mm 4 m/S 742 mmHg 96%
    03:00 +1°C° 0 mm 4 m/S 741 mmHg 96%
    04:00 +1°C° 0 mm 4 m/S 740 mmHg 96%
    05:00 +1°C° 0 mm 4 m/S 740 mmHg 96%
    06:00 +3°C° 0 mm 4 m/S 739 mmHg 95%
    07:00 +3°C° 0 mm 4 m/S 739 mmHg 95%
    08:00 +3°C° 0 mm 4 m/S 739 mmHg 95%
    09:00 +3°C° 0 mm 4 m/S 739 mmHg 95%
    10:00 +3°C° 0 mm 4 m/S 739 mmHg 94%
    11:00 +3°C° 0 mm 4 m/S 739 mmHg 94%
    12:00 +3°C° 0 mm 4 m/S 738 mmHg 91%
    13:00 +2°C° 0 mm 5 m/S 738 mmHg 89%
    14:00 +2°C° 0 mm 5 m/S 738 mmHg 86%
    15:00 +1°C° 0 mm 5 m/S 738 mmHg 84%
    16:00 +1°C° 0 mm 5 m/S 739 mmHg 82%
    17:00 +1°C° 0 mm 5 m/S 739 mmHg 80%
    18:00 +1°C° 0 mm 5 m/S 739 mmHg 78%
    19:00 +1°C° 0 mm 5 m/S 740 mmHg 76%
    20:00 0°C° 0 mm 5 m/S 740 mmHg 75%
    21:00 0°C° 0 mm 5 m/S 740 mmHg 75%
    22:00 0°C° 0 mm 5 m/S 741 mmHg 75%
    23:00 -1°C° 0 mm 4 m/S 741 mmHg 76%

    20 Dezember, Freitag

    Zeit Temperatur Niederschläge Wind Luftdruck Luftfeuchtigkeit
    00:00 -1°C° 0 mm 4 m/S 742 mmHg 79%
    01:00 -2°C° 0 mm 4 m/S 742 mmHg 82%
    02:00 -1°C° 0 mm 3 m/S 742 mmHg 85%
    03:00 -2°C° 0 mm 3 m/S 742 mmHg 87%
    04:00 -2°C° 0 mm 2 m/S 743 mmHg 89%
    05:00 -2°C° 0 mm 2 m/S 743 mmHg 91%
    06:00 -2°C° 0 mm 2 m/S 743 mmHg 91%
    07:00 -3°C° 0 mm 2 m/S 743 mmHg 92%
    08:00 -3°C° 0 mm 2 m/S 744 mmHg 92%
    09:00 0°C° 0 mm 1 m/S 744 mmHg 90%
    10:00 0°C° 0 mm 1 m/S 744 mmHg 88%
    11:00 0°C° 0 mm 1 m/S 745 mmHg 85%
    12:00 0°C° 0 mm 1 m/S 745 mmHg 84%
    13:00 0°C° 0 mm 1 m/S 745 mmHg 84%
    14:00 0°C° 0 mm 1 m/S 744 mmHg 83%
    15:00 0°C° 0 mm 1 m/S 745 mmHg 85%
    16:00 -1°C° 0 mm 1 m/S 745 mmHg 87%
    17:00 -2°C° 0 mm 0 m/S 745 mmHg 90%
    18:00 -1°C° 0 mm 1 m/S 745 mmHg 89%
    19:00 -1°C° 0 mm 1 m/S 745 mmHg 89%
    20:00 -1°C° 0 mm 1 m/S 745 mmHg 89%
    21:00 -2°C° 0 mm 1 m/S 745 mmHg 88%
    22:00 -2°C° 0 mm 1 m/S 745 mmHg 88%
    23:00 -2°C° 0 mm 1 m/S 745 mmHg 87%
    Mehr zeigen